Погода в Юрьевке

Россия / Омская область     54°01′31″N   73°23′35″E
темп.,
°C
ветер,
м/с
пор.,
м/с
влажн.,
%
обл.,
%
осадки,
мм/ч
давл.,
гПа
погр.,
м
21 апреля, ср
ср2100:00−2зюз5104964 0.0 1027282
03:00−1зюз6134798 0.0 1024399
06:000з71351100 0.0 1023504
09:00+2ссз696415 0.0 1024649
12:00+5ссз68444 0.0 10251305
15:00+7ссз793987 0.0 10261981
18:00+6с793969 0.0 10281956
21:00+2ссв610565 0.0 1032560
22 апреля, чт
чт2200:000ссв59735 0.0 1035459
03:00−2ссв48745 0.0 1037394
06:00−2св47775 0.0 1040351
09:00+1св45605 0.0 1042723
12:00+4всв34465 0.0 10431326
15:00+6в33385 0.0 10431529
18:00+7в33355 0.0 10441539
21:00+4вюв35495 0.0 104585
23 апреля, пт
пт2300:00+2вюв37590 0.0 1046161
03:000юв48665 0.0 1045151
06:000юв35671 0.0 1046108
09:00+4юв45480 0.0 1046486
12:00+7ююв34370 0.0 10451301
15:00+9ююв33300 0.0 10431545
18:00+9ююв33290 0.0 10421548
21:00+6юв34413 0.0 104266
24 апреля, сб
сб2400:00+4ююв35535 0.0 104189
03:00+3ююв34589 0.0 104064
06:00+1ююв3562100 0.0 103964
09:00+5ююв45455 0.0 1038420
12:00+9ююв4433100 0.0 10371367
15:00+10ююв442821 0.0 10351552
18:00+10ююв4428100 0.0 10331540
21:00+8ююв4740100 0.0 1033162
25 апреля, вс
вс2500:00+6юв4946100 0.0 1031194
03:00+5юв41050100 0.0 1031253
06:00+5юв51150100 0.0 1029272
09:00+7юв71142100 0.0 1028457
12:00+12ююв81028100 0.0 10261143
15:00+14ююв8102499 0.0 10241807
18:00+14ююв7927100 0.0 10222049
21:00+11юв613375 0.0 1021294